Regional Weather Roundup
Issued by NWS

Home | Current Version | Previous Version | Text Only | Print | Product List | Glossary Off
Versions: 1 2 3 4 5 6 7 8 9 10 11 12 13 14 15 16 17 18 19 20 21 22 23 24 25 26 27 28 29 30 31 32 33 34 35 36 37 38 39 40 41 42 43 44 45 46 47 48 49 50

000
ASUS43 KLMK 281210
RWRKY
KENTUCKY REGIONAL WEATHER ROUNDUP
NATIONAL WEATHER SERVICE LOUISVILLE KY
800 AM EDT THU JUL 28 2016

NOTE "FAIR" INDICATES FEW OR NO CLOUDS BELOW 12,000 FEET
WITH NO SIGNIFICANT WEATHER AND/OR OBSTRUCTIONS TO VISIBILITY.

KYZ001>023-026-027-061>063-070>075-281300-
WESTERN AND SOUTH CENTRAL KENTUCKY

CITY           SKY/WX    TMP DP  RH WIND       PRES   REMARKS
PADUCAH        CLOUDY    74  72  93 CALM      29.90S
HENDERSON      NOT AVBL
OWENSBORO      PTSUNNY   73  73 100 S8        29.93R
HOPKINSVILLE   HVY RAIN  72  72 100 NW3       29.94R FOG
BOWLING GREEN  RAIN      72  70  93 W5        29.94R FOG
GLASGOW        CLOUDY    72  72 100 W6        29.95R THUNDER
$$

KYZ024-025-028>034-038-045-046-053-281300-
NORTH CENTRAL KENTUCKY

CITY           SKY/WX    TMP DP  RH WIND       PRES   REMARKS
LOUISVILLE/SDF LGT RAIN  76  72  87 SW7       29.92S
LOUISVILLE/LOU LGT RAIN  75  73  93 CALM      29.93S
FORT KNOX      LGT RAIN  72  71  97 CALM      29.93S
$$

KYZ035>037-039>044-047>052-055>060-089>105-281300-
NORTHEAST KENTUCKY

CITY           SKY/WX    TMP DP  RH WIND       PRES   REMARKS
LEXINGTON      LGT RAIN  72  70  93 SE3       29.94S
COVINGTON      RAIN      72  72 100 SW3       29.95S FOG
FRANKFORT      LGT RAIN  72  69  90 CALM      29.94R
$$

KYZ054-064>069-076>088-106>120-281300-
SOUTHEAST KENTUCKY

CITY           SKY/WX    TMP DP  RH WIND       PRES   REMARKS
JACKSON        CLOUDY    70  68  93 CALM      29.98S
LONDON         PTSUNNY   73  68  84 CALM      29.96S
SOMERSET       CLOUDY    72  72 100 CALM      29.96S
MIDDLESBORO    CLOUDY    71  71  99 CALM      30.00S
MONTICELLO     MOSUNNY  N/A N/A N/A E6        29.96S
$$




USA.gov is the U.S. government's official web portal to all federal, state and local government web resources and services.